EW5678 Weather Reports


Display with metric or nautical units.
time (UTC)temp
F
wind
direction
speed
MPH
gust
MPH
rain 1hr
in
rain 24hr
in
rain mn
in
humidity
%
barometer
mb
20260901014245 69 160 7.0 10.0 0.00 0.01 0.00 87 1008.0
20260901013345 69 163 7.0 10.0 0.00 0.01 0.00 86 1008.1
20260901012445 69 163 6.0 9.0 0.00 0.02 0.00 86 1008.1
20260901011545 69 163 6.0 9.0 0.00 0.02 0.00 86 1008.1
20260901010645 69 162 7.0 10.0 0.00 0.02 0.00 85 1008.1
20260901005745 69 165 7.0 9.0 0.00 0.02 0.00 85 1008.1
20260901003945 69 164 5.0 8.0 0.00 0.02 0.00 85 1008.0
20260901003045 70 158 3.0 8.0 0.00 0.02 0.00 84 1008.0
20260901002145 70 159 3.0 8.0 0.00 0.02 0.00 84 1008.0
20260901001244 70 167 6.0 9.0 0.00 0.02 0.00 85 1008.0
20260831235445 70 162 4.0 8.0 0.00 0.02 0.02 85 1007.9
20260831234545 70 164 5.0 8.0 0.00 0.02 0.02 84 1008.0
20260831233645 70 164 6.0 9.0 0.00 0.02 0.02 84 1008.2
20260831232745 70 161 4.0 8.0 0.00 0.02 0.02 84 1008.3
20260831231845 70 165 4.0 7.0 0.00 0.02 0.02 84 1008.5
20260831230945 70 168 4.0 8.0 0.00 0.02 0.02 84 1008.4
20260831230045 70 165 7.0 11.0 0.00 0.02 0.02 84 1008.3
20260831223345 70 163 8.0 11.0 0.00 0.02 0.02 83 1008.2
20260831222444 70 165 6.0 10.0 0.00 0.02 0.02 82 1008.3
20260831220644 71 163 4.0 10.0 0.00 0.02 0.02 82 1008.4
20260831215745 71 160 4.0 8.0 0.00 0.02 0.02 81 1008.3
20260831214845 71 163 3.0 8.0 0.00 0.02 0.02 81 1008.3
20260831213945 71 162 6.0 11.0 0.00 0.02 0.02 82 1008.3
20260831213045 71 166 8.0 12.0 0.00 0.02 0.02 81 1008.3
20260831212145 71 161 7.0 10.0 0.00 0.02 0.02 80 1008.4
20260831211245 71 159 6.0 10.0 0.00 0.02 0.02 80 1008.4
20260831210345 71 166 6.0 11.0 0.00 0.02 0.02 78 1008.3
20260831205444 72 168 8.0 12.0 0.00 0.02 0.02 78 1008.4
20260831204545 72 169 6.0 13.0 0.00 0.02 0.02 77 1008.4
20260831203644 72 165 8.0 13.0 0.00 0.02 0.02 78 1008.5
20260831201845 73 161 7.0 11.0 0.00 0.02 0.02 78 1008.5
20260831200945 73 162 6.0 11.0 0.00 0.02 0.02 77 1008.6
20260831200045 74 197 3.0 7.0 0.00 0.02 0.02 76 1008.7
20260831195145 74 185 2.0 5.0 0.00 0.02 0.02 75 1008.7
20260831193344 76 142 1.0 5.0 0.00 0.02 0.02 72 1008.7
20260831192445 75 161 2.0 4.0 0.00 0.02 0.02 72 1008.8
20260831191544 75 148 2.0 4.0 0.00 0.02 0.02 73 1008.7
20260831190645 74 160 2.0 5.0 0.00 0.02 0.02 75 1008.9
20260831185744 74 28 1.0 6.0 0.00 0.02 0.02 80 1009.1
20260831184845 74 39 4.0 9.0 0.00 0.02 0.02 80 1009.1
20260831183944 73 46 6.0 12.0 0.00 0.02 0.02 81 1009.2
20260831183044 73 29 6.0 11.0 0.00 0.02 0.02 80 1009.3
20260831182145 75 309 2.0 4.0 0.00 0.02 0.02 74 1009.5
20260831180345 75 114 2.0 6.0 0.00 0.02 0.02 72 1009.5
20260831175444 76 103 2.0 6.0 0.00 0.02 0.02 73 1009.4
20260831174544 75 105 3.0 8.0 0.00 0.02 0.02 74 1009.3
20260831173644 75 129 3.0 6.0 0.00 0.02 0.02 73 1009.3
20260831172744 75 92 3.0 7.0 0.00 0.02 0.02 75 1009.3
20260831171845 74 97 3.0 7.0 0.00 0.02 0.02 75 1009.5
20260831170945 74 57 4.0 8.0 0.00 0.02 0.02 76 1009.6
20260831165144 74 59 4.0 13.0 0.00 0.02 0.02 76 1009.6
20260831164244 74 79 3.0 9.0 0.00 0.02 0.02 75 1009.6
20260831163345 74 72 2.0 8.0 0.00 0.02 0.02 76 1009.7
20260831162444 74 99 3.0 6.0 0.00 0.02 0.02 73 1009.8
20260831160644 73 90 4.0 6.0 0.00 0.02 0.02 73 1009.7
20260831154845 74 97 2.0 5.0 0.00 0.02 0.02 72 1009.7
20260831153045 74 79 4.0 8.0 0.00 0.02 0.02 72 1009.7
20260831152145 74 75 3.0 9.0 0.00 0.02 0.02 69 1009.9
20260831150344 73 90 6.0 11.0 0.00 0.02 0.02 71 1009.8
20260831145445 72 86 6.0 11.0 0.00 0.02 0.02 74 1009.9
20260831144544 73 65 5.0 10.0 0.00 0.02 0.02 73 1010.1
20260831143645 72 85 5.0 11.0 0.00 0.02 0.02 77 1010.1
20260831142744 72 68 6.0 13.0 0.00 0.02 0.02 77 1009.9
20260831140944 71 51 5.0 10.0 0.00 0.02 0.02 79 1010.0
20260831135144 70 74 6.0 12.0 0.00 0.02 0.02 82 1009.8
20260831134244 69 52 4.0 10.0 0.00 0.02 0.02 84 1009.9
20260831133344 69 39 5.0 10.0 0.00 0.02 0.02 85 1009.7
20260831132445 69 42 6.0 10.0 0.00 0.02 0.02 85 1009.5
20260831125744 69 39 9.0 14.0 0.00 0.02 0.02 85 1009.5
20260831124844 69 44 9.0 17.0 0.00 0.02 0.02 85 1009.6
20260831123944 69 38 11.0 17.0 0.00 0.02 0.02 85 1009.4
20260831123045 68 40 9.0 17.0 0.00 0.02 0.02 86 1009.5
20260831122144 68 41 10.0 15.0 0.00 0.02 0.02 86 1009.5
20260831121244 67 40 11.0 15.0 0.00 0.02 0.02 87 1009.6
20260831120344 67 39 11.0 14.0 0.00 0.02 0.02 87 1009.5
20260831115445 67 36 8.0 13.0 0.00 0.02 0.02 88 1009.4
20260831114544 67 37 9.0 12.0 0.00 0.02 0.02 88 1009.5
20260831113646 67 38 9.0 12.0 0.00 0.02 0.02 88 1009.4
20260831112744 67 40 9.0 12.0 0.00 0.02 0.02 88 1009.2
20260831111844 67 39 10.0 12.0 0.00 0.02 0.02 88 1009.2
20260831110945 67 36 10.0 12.0 0.00 0.02 0.02 88 1009.0
20260831110044 67 36 10.0 14.0 0.00 0.02 0.02 87 1008.9
20260831105144 67 38 11.0 14.0 0.00 0.02 0.02 86 1008.9
20260831103345 67 37 12.0 17.0 0.00 0.02 0.02 86 1008.6
20260831102445 67 39 11.0 17.0 0.00 0.02 0.02 86 1008.6
20260831101544 67 40 11.0 17.0 0.00 0.02 0.02 85 1008.5
20260831100644 68 42 13.0 19.0 0.00 0.02 0.02 85 1008.5
20260831095744 68 40 12.0 19.0 0.00 0.02 0.02 85 1008.4
20260831094844 68 44 12.0 18.0 0.00 0.02 0.02 86 1008.3
20260831093945 68 41 14.0 23.0 0.00 0.02 0.02 85 1008.4
20260831092144 68 38 10.0 14.0 0.00 0.02 0.02 86 1008.4
20260831091245 68 38 11.0 16.0 0.00 0.02 0.02 85 1008.3
20260831090345 68 37 12.0 18.0 0.00 0.02 0.02 85 1008.2
20260831085444 69 38 15.0 19.0 0.00 0.02 0.02 85 1008.2
20260831084545 69 35 15.0 19.0 0.00 0.02 0.02 84 1008.2
20260831082745 69 33 15.0 19.0 0.00 0.02 0.02 84 1008.3
20260831081844 69 34 14.0 18.0 0.00 0.02 0.02 84 1008.3
20260831080944 69 35 15.0 18.0 0.00 0.02 0.02 84 1008.2
20260831075145 69 37 14.0 19.0 0.00 0.02 0.02 85 1008.1
20260831074245 69 37 13.0 17.0 0.00 0.02 0.02 87 1008.3
20260831073344 69 30 11.0 13.0 0.00 0.02 0.02 90 1008.4
20260831072444 69 25 11.0 12.0 0.00 0.02 0.02 90 1008.4
20260831070644 70 26 12.0 15.0 0.00 0.02 0.02 90 1008.2
20260831065744 70 32 12.0 14.0 0.00 0.02 0.02 91 1008.2
20260831064845 70 21 11.0 16.0 0.00 0.02 0.02 90 1008.2
20260831063945 71 355 13.0 19.0 0.00 0.02 0.02 88 1008.1
20260831062144 71 331 11.0 14.0 0.00 0.02 0.02 88 1008.2
20260831061245 71 327 11.0 13.0 0.00 0.02 0.02 87 1008.2
20260831060344 71 324 12.0 13.0 0.00 0.02 0.02 88 1008.1
20260831054545 71 316 8.0 12.0 0.00 0.02 0.02 88 1008.1
20260831053644 72 319 12.0 15.0 0.00 0.02 0.02 87 1008.0
20260831052744 72 322 11.0 15.0 0.00 0.02 0.02 86 1008.0
20260831050944 72 320 14.0 17.0 0.00 0.02 0.02 86 1008.0
20260831050045 72 321 14.0 17.0 0.00 0.02 0.02 86 1007.9
20260831045145 72 325 14.0 17.0 0.00 0.02 0.02 87 1007.9
20260831044245 72 320 10.0 15.0 0.00 0.02 0.02 89 1007.9
20260831043344 72 302 12.0 15.0 0.00 0.02 0.02 90 1007.9
20260831042444 72 296 12.0 16.0 0.00 0.02 0.02 90 1007.7
20260831041545 72 295 14.0 18.0 0.00 0.02 0.02 89 1007.7
20260831040644 72 302 12.0 18.0 0.00 0.02 0.02 90 1007.7
20260831035744 72 304 14.0 18.0 0.00 0.02 0.02 90 1007.7
20260831034844 72 306 11.0 18.0 0.00 0.02 0.02 88 1007.6
20260831033944 72 303 8.0 12.0 0.00 0.02 0.02 90 1007.8
20260831033044 72 299 8.0 10.0 0.00 0.02 0.02 89 1007.9
20260831032146 72 295 9.0 12.0 0.00 0.02 0.02 89 1007.9
20260831031244 72 294 11.0 15.0 0.00 0.02 0.02 89 1008.1
20260831030345 72 293 10.0 14.0 0.00 0.02 0.02 90 1008.2
20260831025444 72 289 11.0 14.0 0.01 0.02 0.02 89 1008.4
20260831024544 72 295 11.0 15.0 0.01 0.02 0.02 91 1008.3
20260831023644 72 299 11.0 13.0 0.01 0.02 0.02 92 1008.4
20260831022744 72 297 12.0 16.0 0.01 0.02 0.02 91 1008.3
20260831021844 72 291 13.0 17.0 0.02 0.02 0.02 92 1008.3
20260831020945 73 284 12.0 17.0 0.02 0.02 0.02 92 1008.4
20260831020046 72 279 10.0 13.0 0.01 0.01 0.01 92 1008.4